Погода в Бурибае

Россия / Республика Башкортостан     51°57′40″N   58°09′49″E
темп.,
°C
ветер,
м/с
пор.,
м/с
влажн.,
%
обл.,
%
осадки,
мм/ч
давл.,
гПа
погр.,
м
7 мая, пт
пт723:00+10с35595 0.0 102075
02:00+9с33655 0.0 102035
05:00+7св227074 0.0 102114
08:00+10в34616 0.0 1022273
11:00+15в344599 0.0 10211255
14:00+17вюв3336100 0.0 10201811
17:00+17в2232100 0.0 10191908
20:00+15св2241100 0.0 101832
8 мая, сб
сб823:00+13св3345100 0.0 101937
02:00+12всв2251100 0.0 101830
05:00+10св335727 0.0 101837
08:00+13всв335299 0.0 1018254
11:00+17ю3341100 0.0 10171223
14:00+18юз1233100 0.0 10162312
17:00+18ю433799 0.0 10161374
20:00+16ююз4649100 0.0 1016215
9 мая, вс
вс923:00+13ссз346196 0.0 101571
02:00+11ссз356413 0.0 101576
05:00+10ссз347066 0.0 101672
08:00+13ссв455811 0.0 1016353
11:00+17всв33405 0.0 10161221
14:00+20с462773 0.0 10152940
17:00+20ссв57254 0.0 10152436
20:00+17ссз34375 0.0 101648
10 мая, пн
пн1023:00+14с34475 0.0 101748
02:00+12с34585 0.0 101841
05:00+11с33612 0.0 101936
08:00+15с46480 0.0 1020250
11:00+20ссв56335 0.0 10201889
14:00+22св4431100 0.0 10202456
17:00+22с4429100 0.0 10202536
20:00+19с344019 0.0 102167
11 мая, вт
вт1123:00+14юв225957 0.0 102315
02:00+14юз3354100 0.0 102338
05:00+13з226071 0.0 102313
08:00+16ссз345974 0.0 1024274
11:00+21с344141 0.0 10251433
14:00+21ссз4541100 0.0 10241844
17:00+22ссз343476 0.0 10242156
20:00+17всв710605 0.0 1026490